START_TIME,STEP,MOV.,EG07,t_acc.,EG08,t_acc.,EG09,t_acc.,EB05,t_acc.,EBP05,t_acc.
1979-03-03 15:00:12.320 ,1,0,0.,1.2,0.,1.2,0.,1.2,,0.0,,0.0
1979-03-03 15:00:13.520 ,1,0,0.,1.2,0.,1.2,0.,1.2,,0.0,,0.0
1979-03-03 15:00:14.720 ,1,0,0.,1.2,0.,1.2,0.,1.2,,0.0,,0.0
1979-03-03 15:00:15.920 ,1,0,0.,1.2,0.,1.2,0.,1.2,,0.0,,0.0
1979-03-03 15:00:17.120 ,1,0,0.,1.2,0.,1.2,0.,1.2,,0.0,,0.0
1979-03-03 15:00:18.320 ,1,0,0.,1.2,0.,1.2,0.,1.2,,0.0,,0.0
1979-03-03 15:00:19.520 ,1,0,0.,1.2,0.,1.2,0.,1.2,,0.0,,0.0
1979-03-03 15:00:20.720 ,1,0,0.,1.2,0.,1.2,0.,1.2,,0.0,,0.0
1979-03-03 15:00:21.920 ,1,0,0.,1.2,0.,1.2,0.,1.2,,0.0,,0.0
1979-03-03 15:00:23.120 ,1,0,0.,1.2,0.,1.2,0.,1.2,,0.0,,0.0
1979-03-03 15:00:24.320 ,1,0,0.,1.2,0.,1.2,0.,1.2,,0.0,,0.0
1979-03-03 15:00:25.520 ,1,0,0.,1.2,0.,1.2,0.,1.2,,0.0,,0.0
1979-03-03 15:00:26.720 ,1,0,0.,1.2,0.,1.2,0.,1.2,,0.0,,0.0
1979-03-03 15:00:27.920 ,1,0,0.,1.2,0.,1.2,0.,1.2,,0.0,,0.0
1979-03-03 15:00:29.120 ,1,0,0.,1.2,0.,1.2,0.,1.2,,0.0,,0.0
1979-03-03 15:00:30.320 ,1,0,0.,1.2,0.,1.2,0.,1.2,,0.0,,0.0
1979-03-03 15:00:31.520 ,1,0,0.,1.2,0.,1.2,0.,1.2,,0.0,,0.0
1979-03-03 15:00:32.720 ,1,0,0.,1.2,0.,1.2,0.,1.2,,0.0,,0.0
1979-03-03 15:00:33.920 ,1,0,0.,1.2,0.,1.2,0.,1.2,,0.0,,0.0
1979-03-03 15:00:35.120 ,1,0,0.,1.2,0.,1.2,0.,1.2,,0.0,,0.0
1979-03-03 15:00:36.320 ,2,0,0.,1.2,0.,1.2,0.,1.2,,0.0,,0.0
1979-03-03 15:00:37.520 ,2,0,0.,1.2,0.,1.2,0.,1.2,,0.0,,0.0
1979-03-03 15:00:38.720 ,2,0,0.,1.2,0.,1.2,0.,1.2,,0.0,,0.0
1979-03-03 15:00:39.920 ,2,0,0.,1.2,0.,1.2,0.,1.2,,0.0,,0.0
1979-03-03 15:00:41.120 ,2,0,0.,1.2,0.,1.2,0.,1.2,,0.0,,0.0
1979-03-03 15:00:42.320 ,2,0,0.,1.2,0.,1.2,0.,1.2,,0.0,,0.0
1979-03-03 15:00:43.520 ,2,0,0.,1.2,0.,1.2,0.,1.2,,0.0,,0.0
1979-03-03 15:00:44.720 ,2,0,0.,1.2,0.,1.2,0.,1.2,,0.0,,0.0
1979-03-03 15:00:45.920 ,2,0,0.,1.2,0.,1.2,0.,1.2,,0.0,,0.0
1979-03-03 15:00:47.120 ,2,0,0.,1.2,0.,1.2,0.,1.2,,0.0,,0.0
1979-03-03 15:00:48.320 ,2,0,0.,1.2,0.,1.2,0.,1.2,,0.0,,0.0
1979-03-03 15:00:49.520 ,2,0,0.,1.2,0.,1.2,0.,1.2,,0.0,,0.0
1979-03-03 15:00:50.720 ,2,0,0.,1.2,0.,1.2,0.,1.2,,0.0,,0.0
1979-03-03 15:00:51.920 ,2,0,0.,1.2,0.,1.2,0.,1.2,,0.0,,0.0
1979-03-03 15:00:53.120 ,2,0,0.,1.2,0.,1.2,0.,1.2,,0.0,,0.0
1979-03-03 15:00:54.320 ,2,0,0.,1.2,0.,1.2,0.,1.2,,0.0,,0.0
1979-03-03 15:00:55.520 ,2,0,0.,1.2,0.,1.2,0.,1.2,,0.0,,0.0
1979-03-03 15:00:56.720 ,2,0,0.,1.2,0.,1.2,0.,1.2,,0.0,,0.0
1979-03-03 15:00:57.920 ,2,0,0.,1.2,0.,1.2,0.,1.2,,0.0,,0.0
1979-03-03 15:00:59.120 ,2,0,0.,1.2,0.,1.2,0.,1.2,,0.0,,0.0
1979-03-03 15:01:00.320 ,3,0,0.,1.2,0.,1.2,0.,1.2,,0.0,,0.0
1979-03-03 15:01:01.520 ,3,0,0.,1.2,0.,1.2,0.,1.2,,0.0,,0.0
1979-03-03 15:01:02.720 ,3,0,0.,1.2,0.,1.2,0.,1.2,,0.0,,0.0
1979-03-03 15:01:03.920 ,3,0,0.,1.2,0.,1.2,0.,1.2,,0.0,,0.0
1979-03-03 15:01:05.120 ,3,0,0.,1.2,0.,1.2,0.,1.2,,0.0,,0.0
1979-03-03 15:01:06.320 ,3,0,0.,1.2,0.,1.2,0.,1.2,,0.0,,0.0
1979-03-03 15:01:07.520 ,3,0,0.,1.2,0.,1.2,0.,1.2,,0.0,,0.0
1979-03-03 15:01:08.720 ,3,0,0.,1.2,0.,1.2,0.,1.2,,0.0,,0.0
1979-03-03 15:01:09.920 ,3,0,0.,1.2,0.,1.2,0.,1.2,,0.0,,0.0
1979-03-03 15:01:11.120 ,3,0,0.,1.2,0.,1.2,0.,1.2,,0.0,,0.0
1979-03-03 15:01:12.320 ,3,0,0.,1.2,0.,1.2,0.,1.2,,0.0,,0.0
1979-03-03 15:01:13.520 ,3,0,0.,1.2,0.,1.2,0.,1.2,,0.0,,0.0
1979-03-03 15:01:14.720 ,3,0,0.,1.2,0.,1.2,0.,1.2,,0.0,,0.0
1979-03-03 15:01:15.920 ,3,0,0.,1.2,0.,1.2,0.,1.2,,0.0,,0.0
1979-03-03 15:01:17.120 ,3,0,0.,1.2,0.,1.2,0.,1.2,,0.0,,0.0
1979-03-03 15:01:18.320 ,3,0,0.,1.2,0.,1.2,0.,1.2,,0.0,,0.0
1979-03-03 15:01:19.520 ,3,0,0.,1.2,0.,1.2,0.,1.2,,0.0,,0.0
1979-03-03 15:01:20.720 ,3,0,0.,1.2,0.,1.2,0.,1.2,,0.0,,0.0
1979-03-03 15:01:21.920 ,3,0,0.,1.2,0.,1.2,0.,1.2,,0.0,,0.0
1979-03-03 15:01:23.120 ,3,0,0.,1.2,0.,1.2,0.,1.2,,0.0,,0.0
1979-03-03 15:01:24.320 ,4,0,0.,1.2,0.,1.2,0.,1.2,,0.0,,0.0
1979-03-03 15:01:25.520 ,4,0,0.,1.2,0.,1.2,0.,1.2,,0.0,,0.0
1979-03-03 15:01:26.720 ,4,0,0.,1.2,0.,1.2,0.,1.2,,0.0,,0.0
1979-03-03 15:01:27.920 ,4,0,0.,1.2,0.,1.2,0.,1.2,,0.0,,0.0
1979-03-03 15:01:29.120 ,4,0,0.,1.2,0.,1.2,0.,1.2,,0.0,,0.0
1979-03-03 15:01:30.320 ,4,0,0.,1.2,0.,1.2,0.,1.2,,0.0,,0.0
1979-03-03 15:01:31.520 ,4,0,0.,1.2,0.,1.2,0.,1.2,,0.0,,0.0
1979-03-03 15:01:32.720 ,4,0,0.,1.2,0.,1.2,0.,1.2,,0.0,,0.0
1979-03-03 15:01:33.920 ,4,0,0.,1.2,0.,1.2,0.,1.2,,0.0,,0.0
1979-03-03 15:01:35.120 ,4,0,0.,1.2,0.,1.2,0.,1.2,,0.0,,0.0
1979-03-03 15:01:36.320 ,4,0,0.,1.2,0.,1.2,0.,1.2,,0.0,,0.0
1979-03-03 15:01:37.520 ,4,0,0.,1.2,0.,1.2,0.,1.2,,0.0,,0.0
1979-03-03 15:01:38.720 ,4,0,0.,1.2,0.,1.2,0.,1.2,,0.0,,0.0
1979-03-03 15:01:39.920 ,4,0,0.,1.2,0.,1.2,0.,1.2,,0.0,,0.0
1979-03-03 15:01:41.120 ,4,0,0.,1.2,0.,1.2,0.,1.2,,0.0,,0.0
1979-03-03 15:01:42.320 ,4,0,0.,1.2,0.,1.2,0.,1.2,,0.0,,0.0
1979-03-03 15:01:43.520 ,4,0,0.,1.2,0.,1.2,0.,1.2,,0.0,,0.0
1979-03-03 15:01:44.720 ,4,0,0.,1.2,0.,1.2,0.,1.2,,0.0,,0.0
1979-03-03 15:01:45.920 ,4,0,0.,1.2,0.,1.2,0.,1.2,,0.0,,0.0
1979-03-03 15:01:47.120 ,4,0,0.,1.2,0.,1.2,0.,1.2,,0.0,,0.0
1979-03-03 15:01:48.320 ,5,0,0.,1.2,0.,1.2,0.,1.2,,0.0,,0.0
1979-03-03 15:01:49.520 ,5,0,0.,1.2,0.,1.2,0.,1.2,,0.0,,0.0
1979-03-03 15:01:50.720 ,5,0,0.,1.2,0.,1.2,0.,1.2,,0.0,,0.0
1979-03-03 15:01:51.920 ,5,0,0.,1.2,0.,1.2,0.,1.2,,0.0,,0.0
1979-03-03 15:01:53.120 ,5,0,0.,1.2,0.,1.2,0.,1.2,,0.0,,0.0
1979-03-03 15:01:54.320 ,5,0,0.,1.2,0.,1.2,0.,1.2,,0.0,,0.0
1979-03-03 15:01:55.520 ,5,0,0.,1.2,0.,1.2,0.,1.2,,0.0,,0.0
1979-03-03 15:01:56.720 ,5,0,0.,1.2,0.,1.2,0.,1.2,,0.0,,0.0
1979-03-03 15:01:57.920 ,5,0,0.,1.2,0.,1.2,0.,1.2,,0.0,,0.0
1979-03-03 15:01:59.120 ,5,0,0.,1.2,0.,1.2,0.,1.2,,0.0,,0.0
1979-03-03 15:02:00.320 ,5,0,0.,1.2,0.,1.2,0.,1.2,,0.0,,0.0
1979-03-03 15:02:01.520 ,5,0,0.,1.2,0.,1.2,0.,1.2,,0.0,,0.0
1979-03-03 15:02:02.720 ,5,0,0.,1.2,0.,1.2,0.,1.2,,0.0,,0.0
1979-03-03 15:02:03.920 ,5,0,0.,1.2,0.,1.2,0.,1.2,,0.0,,0.0
1979-03-03 15:02:05.120 ,5,0,0.,1.2,0.,1.2,0.,1.2,,0.0,,0.0
1979-03-03 15:02:06.320 ,5,0,0.,1.2,0.,1.2,0.,1.2,,0.0,,0.0
1979-03-03 15:02:07.520 ,5,0,0.,1.2,0.,1.2,0.,1.2,,0.0,,0.0
1979-03-03 15:02:08.720 ,5,0,0.,1.2,0.,1.2,0.,1.2,,0.0,,0.0
1979-03-03 15:02:09.920 ,5,0,0.,1.2,0.,1.2,0.,1.2,,0.0,,0.0
1979-03-03 15:02:11.120 ,5,0,0.,1.2,0.,1.2,0.,1.2,,0.0,,0.0
1979-03-03 15:02:12.320 ,6,0,0.,1.2,0.,1.2,0.,1.2,,0.0,,0.0
1979-03-03 15:02:13.520 ,6,0,0.,1.2,0.,1.2,0.,1.2,,0.0,,0.0
1979-03-03 15:02:14.720 ,6,0,0.,1.2,0.,1.2,0.,1.2,,0.0,,0.0
1979-03-03 15:02:15.920 ,6,0,0.,1.2,0.,1.2,0.,1.2,,0.0,,0.0
1979-03-03 15:02:17.120 ,6,0,0.,1.2,0.,1.2,0.,1.2,,0.0,,0.0
1979-03-03 15:02:18.320 ,6,0,0.,1.2,0.,1.2,0.,1.2,,0.0,,0.0
1979-03-03 15:02:19.520 ,6,0,0.,1.2,0.,1.2,0.,1.2,,0.0,,0.0
1979-03-03 15:02:20.720 ,6,0,0.,1.2,0.,1.2,0.,1.2,,0.0,,0.0
1979-03-03 15:02:21.920 ,6,0,0.,1.2,0.,1.2,0.,1.2,,0.0,,0.0
1979-03-03 15:02:23.120 ,6,0,0.,1.2,0.,1.2,0.,1.2,,0.0,,0.0
1979-03-03 15:02:24.320 ,6,0,0.,1.2,0.,1.2,0.,1.2,,0.0,,0.0
1979-03-03 15:02:25.520 ,6,0,0.,1.2,0.,1.2,0.,1.2,,0.0,,0.0
1979-03-03 15:02:26.720 ,6,0,0.,1.2,0.,1.2,0.,1.2,,0.0,,0.0
1979-03-03 15:02:27.920 ,6,0,0.,1.2,0.,1.2,0.,1.2,,0.0,,0.0
1979-03-03 15:02:29.120 ,6,0,0.,1.2,0.,1.2,0.,1.2,,0.0,,0.0
1979-03-03 15:02:30.320 ,6,0,0.,1.2,0.,1.2,0.,1.2,,0.0,,0.0
1979-03-03 15:02:31.520 ,6,0,0.,1.2,0.,1.2,0.,1.2,,0.0,,0.0
1979-03-03 15:02:32.720 ,6,0,0.,1.2,0.,1.2,0.,1.2,,0.0,,0.0
1979-03-03 15:02:33.920 ,6,0,0.,1.2,0.,1.2,0.,1.2,,0.0,,0.0
1979-03-03 15:02:35.120 ,6,0,0.,1.2,0.,1.2,0.,1.2,,0.0,,0.0
1979-03-03 15:02:36.320 ,7,0,0.,1.2,0.,1.2,0.,1.2,,0.0,,0.0
1979-03-03 15:02:37.520 ,7,0,0.,1.2,0.,1.2,0.,1.2,,0.0,,0.0
1979-03-03 15:02:38.720 ,7,0,0.,1.2,0.,1.2,0.,1.2,,0.0,,0.0
1979-03-03 15:02:39.920 ,7,0,0.,1.2,0.,1.2,0.,1.2,,0.0,,0.0
1979-03-03 15:02:41.120 ,7,0,0.,1.2,0.,1.2,0.,1.2,,0.0,,0.0
1979-03-03 15:02:42.320 ,7,0,0.,1.2,0.,1.2,0.,1.2,,0.0,,0.0
1979-03-03 15:02:43.520 ,7,0,0.,1.2,0.,1.2,0.,1.2,,0.0,,0.0
1979-03-03 15:02:44.720 ,7,0,0.,1.2,0.,1.2,0.,1.2,,0.0,,0.0
1979-03-03 15:02:45.920 ,7,0,0.,1.2,0.,1.2,0.,1.2,,0.0,,0.0
1979-03-03 15:02:47.120 ,7,0,0.,1.2,0.,1.2,0.,1.2,,0.0,,0.0
1979-03-03 15:02:48.320 ,7,0,0.,1.2,0.,1.2,0.,1.2,,0.0,,0.0
1979-03-03 15:02:49.520 ,7,0,0.,1.2,0.,1.2,0.,1.2,,0.0,,0.0
1979-03-03 15:02:50.720 ,7,0,0.,1.2,0.,1.2,0.,1.2,,0.0,,0.0
1979-03-03 15:02:51.920 ,7,0,0.,1.2,0.,1.2,0.,1.2,,0.0,,0.0
1979-03-03 15:02:53.120 ,7,0,0.,1.2,0.,1.2,0.,1.2,,0.0,,0.0
1979-03-03 15:02:54.320 ,7,0,0.,1.2,0.,1.2,0.,1.2,,0.0,,0.0
1979-03-03 15:02:55.520 ,7,0,0.,1.2,0.,1.2,0.,1.2,,0.0,,0.0
1979-03-03 15:02:56.720 ,7,0,0.,1.2,0.,1.2,0.,1.2,,0.0,,0.0
1979-03-03 15:02:57.920 ,7,0,0.,1.2,0.,1.2,0.,1.2,,0.0,,0.0
1979-03-03 15:02:59.120 ,7,0,0.,1.2,0.,1.2,0.,1.2,,0.0,,0.0
1979-03-03 15:03:00.320 ,7,0,0.,1.2,0.,1.2,0.,1.2,,0.0,,0.0
1979-03-03 15:03:01.520 ,7,0,0.,1.2,0.,1.2,0.,1.2,,0.0,,0.0
1979-03-03 15:03:02.720 ,7,0,0.,1.2,0.,1.2,0.,1.2,,0.0,,0.0
1979-03-03 15:03:03.920 ,7,0,0.,1.2,0.,1.2,0.,1.2,,0.0,,0.0
1979-03-03 15:03:05.120 ,7,0,0.,1.2,0.,1.2,0.,1.2,,0.0,,0.0
1979-03-03 15:03:06.320 ,7,0,0.,1.2,0.,1.2,0.,1.2,,0.0,,0.0
1979-03-03 15:03:07.520 ,7,0,0.,1.2,0.,1.2,0.,1.2,,0.0,,0.0
1979-03-03 15:03:08.720 ,7,0,0.,1.2,0.,1.2,0.,1.2,,0.0,,0.0
1979-03-03 15:03:09.920 ,7,0,0.,1.2,0.,1.2,0.,1.2,,0.0,,0.0
1979-03-03 15:03:11.120 ,7,0,0.,1.2,0.,1.2,0.,1.2,,0.0,,0.0
1979-03-03 15:03:12.320 ,7,0,0.,1.2,0.,1.2,0.,1.2,,0.0,,0.0
1979-03-03 15:03:13.520 ,7,0,0.,1.2,0.,1.2,0.,1.2,,0.0,,0.0
1979-03-03 15:03:14.720 ,7,0,0.,1.2,0.,1.2,0.,1.2,,0.0,,0.0
1979-03-03 15:03:15.920 ,7,0,0.,1.2,0.,1.2,0.,1.2,,0.0,,0.0
1979-03-03 15:03:17.120 ,7,0,0.,1.2,0.,1.2,0.,1.2,,0.0,,0.0
1979-03-03 15:03:18.320 ,7,0,0.,1.2,0.,1.2,0.,1.2,,0.0,,0.0
1979-03-03 15:03:19.520 ,7,0,0.,1.2,0.,1.2,0.,1.2,,0.0,,0.0
1979-03-03 15:03:20.720 ,7,0,0.,1.2,0.,1.2,0.,1.2,,0.0,,0.0
1979-03-03 15:03:21.920 ,7,0,0.,1.2,0.,1.2,0.,1.2,,0.0,,0.0
1979-03-03 15:03:23.120 ,7,0,0.,1.2,0.,1.2,0.,1.2,,0.0,,0.0
1979-03-03 15:03:24.320 ,6,0,0.,1.2,0.,1.2,0.,1.2,,0.0,,0.0
1979-03-03 15:03:25.520 ,6,0,0.,1.2,0.,1.2,0.,1.2,,0.0,,0.0
1979-03-03 15:03:26.720 ,6,0,0.,1.2,0.,1.2,0.,1.2,,0.0,,0.0
1979-03-03 15:03:27.920 ,6,0,0.,1.2,0.,1.2,0.,1.2,,0.0,,0.0
1979-03-03 15:03:29.120 ,6,0,0.,1.2,0.,1.2,0.,1.2,,0.0,,0.0
1979-03-03 15:03:30.320 ,6,0,0.,1.2,0.,1.2,0.,1.2,,0.0,,0.0
1979-03-03 15:03:31.520 ,6,0,0.,1.2,0.,1.2,0.,1.2,,0.0,,0.0
1979-03-03 15:03:32.720 ,6,0,0.,1.2,0.,1.2,0.,1.2,,0.0,,0.0
1979-03-03 15:03:33.920 ,6,0,0.,1.2,0.,1.2,0.,1.2,,0.0,,0.0
1979-03-03 15:03:35.120 ,6,0,0.,1.2,0.,1.2,0.,1.2,,0.0,,0.0
1979-03-03 15:03:36.320 ,6,0,0.,1.2,0.,1.2,0.,1.2,,0.0,,0.0
1979-03-03 15:03:37.520 ,6,0,0.,1.2,0.,1.2,0.,1.2,,0.0,,0.0
1979-03-03 15:03:38.720 ,6,0,0.,1.2,0.,1.2,0.,1.2,,0.0,,0.0
1979-03-03 15:03:39.920 ,6,0,0.,1.2,0.,1.2,0.,1.2,,0.0,,0.0
1979-03-03 15:03:41.120 ,6,0,0.,1.2,0.,1.2,0.,1.2,,0.0,,0.0
1979-03-03 15:03:42.320 ,6,0,0.,1.2,0.,1.2,0.,1.2,,0.0,,0.0
1979-03-03 15:03:43.520 ,6,0,0.,1.2,0.,1.2,0.,1.2,,0.0,,0.0
1979-03-03 15:03:44.720 ,6,0,0.,1.2,0.,1.2,0.,1.2,,0.0,,0.0
1979-03-03 15:03:45.920 ,6,0,0.,1.2,0.,1.2,0.,1.2,,0.0,,0.0
1979-03-03 15:03:47.120 ,6,0,0.,1.2,0.,1.2,0.,1.2,,0.0,,0.0
1979-03-03 15:03:48.320 ,5,0,0.,1.2,0.,1.2,0.,1.2,,0.0,,0.0
1979-03-03 15:03:49.520 ,5,0,0.,1.2,0.,1.2,0.,1.2,,0.0,,0.0
1979-03-03 15:03:50.720 ,5,0,0.,1.2,0.,1.2,0.,1.2,,0.0,,0.0
1979-03-03 15:03:51.920 ,5,0,0.,1.2,0.,1.2,0.,1.2,,0.0,,0.0
1979-03-03 15:03:53.120 ,5,0,0.,1.2,0.,1.2,0.,1.2,,0.0,,0.0
1979-03-03 15:03:54.320 ,5,0,0.,1.2,0.,1.2,0.,1.2,,0.0,,0.0
1979-03-03 15:03:55.520 ,5,0,0.,1.2,0.,1.2,0.,1.2,,0.0,,0.0
1979-03-03 15:03:56.720 ,5,0,0.,1.2,0.,1.2,0.,1.2,,0.0,,0.0
1979-03-03 15:03:57.920 ,5,0,0.,1.2,0.,1.2,0.,1.2,,0.0,,0.0
1979-03-03 15:03:59.120 ,5,0,0.,1.2,0.,1.2,0.,1.2,,0.0,,0.0
1979-03-03 15:04:00.320 ,5,0,0.,1.2,0.,1.2,0.,1.2,,0.0,,0.0
1979-03-03 15:04:01.520 ,5,0,0.,1.2,0.,1.2,0.,1.2,,0.0,,0.0
1979-03-03 15:04:02.720 ,5,0,0.,1.2,0.,1.2,0.,1.2,,0.0,,0.0
1979-03-03 15:04:03.920 ,5,0,0.,1.2,0.,1.2,0.,1.2,,0.0,,0.0
1979-03-03 15:04:05.120 ,5,0,0.,1.2,0.,1.2,0.,1.2,,0.0,,0.0
1979-03-03 15:04:06.320 ,5,0,0.,1.2,0.,1.2,0.,1.2,,0.0,,0.0
1979-03-03 15:04:07.520 ,5,0,0.,1.2,0.,1.2,0.,1.2,,0.0,,0.0
1979-03-03 15:04:08.720 ,5,0,0.,1.2,0.,1.2,0.,1.2,,0.0,,0.0
1979-03-03 15:04:09.920 ,5,0,0.,1.2,0.,1.2,0.,1.2,,0.0,,0.0
1979-03-03 15:04:11.120 ,5,0,0.,1.2,0.,1.2,0.,1.2,,0.0,,0.0
1979-03-03 15:04:12.320 ,4,0,0.,1.2,0.,1.2,0.,1.2,,0.0,,0.0
1979-03-03 15:04:13.520 ,4,0,0.,1.2,0.,1.2,0.,1.2,,0.0,,0.0
1979-03-03 15:04:14.720 ,4,0,0.,1.2,0.,1.2,0.,1.2,,0.0,,0.0
1979-03-03 15:04:15.920 ,4,0,0.,1.2,0.,1.2,0.,1.2,,0.0,,0.0
1979-03-03 15:04:17.120 ,4,0,0.,1.2,0.,1.2,0.,1.2,,0.0,,0.0
1979-03-03 15:04:18.320 ,4,0,0.,1.2,0.,1.2,0.,1.2,,0.0,,0.0
1979-03-03 15:04:19.520 ,4,0,0.,1.2,0.,1.2,0.,1.2,,0.0,,0.0
1979-03-03 15:04:20.720 ,4,0,0.,1.2,0.,1.2,0.,1.2,,0.0,,0.0
1979-03-03 15:04:21.920 ,4,0,0.,1.2,0.,1.2,0.,1.2,,0.0,,0.0
1979-03-03 15:04:23.120 ,4,0,0.,1.2,0.,1.2,0.,1.2,,0.0,,0.0
1979-03-03 15:04:24.320 ,4,0,0.,1.2,0.,1.2,0.,1.2,,0.0,,0.0
1979-03-03 15:04:25.520 ,4,0,0.,1.2,0.,1.2,0.,1.2,,0.0,,0.0
1979-03-03 15:04:26.720 ,4,0,0.,1.2,0.,1.2,0.,1.2,,0.0,,0.0
1979-03-03 15:04:27.920 ,4,0,0.,1.2,0.,1.2,0.,1.2,,0.0,,0.0
1979-03-03 15:04:29.120 ,4,0,0.,1.2,0.,1.2,0.,1.2,,0.0,,0.0
1979-03-03 15:04:30.320 ,4,0,0.,1.2,0.,1.2,0.,1.2,,0.0,,0.0
1979-03-03 15:04:31.520 ,4,0,0.,1.2,0.,1.2,0.,1.2,,0.0,,0.0
1979-03-03 15:04:32.720 ,4,0,0.,1.2,0.,1.2,0.,1.2,,0.0,,0.0
1979-03-03 15:04:33.920 ,4,0,0.,1.2,0.,1.2,0.,1.2,,0.0,,0.0
1979-03-03 15:04:35.120 ,4,0,0.,1.2,0.,1.2,0.,1.2,,0.0,,0.0
1979-03-03 15:04:36.320 ,3,0,0.,1.2,0.,1.2,0.,1.2,,0.0,,0.0
1979-03-03 15:04:37.520 ,3,0,0.,1.2,0.,1.2,0.,1.2,,0.0,,0.0
1979-03-03 15:04:38.720 ,3,0,0.,1.2,0.,1.2,0.,1.2,,0.0,,0.0
1979-03-03 15:04:39.920 ,3,0,0.,1.2,0.,1.2,0.,1.2,,0.0,,0.0
1979-03-03 15:04:41.120 ,3,0,0.,1.2,0.,1.2,0.,1.2,,0.0,,0.0
1979-03-03 15:04:42.320 ,3,0,0.,1.2,0.,1.2,0.,1.2,,0.0,,0.0
1979-03-03 15:04:43.520 ,3,0,0.,1.2,0.,1.2,0.,1.2,,0.0,,0.0
1979-03-03 15:04:44.720 ,3,0,0.,1.2,0.,1.2,0.,1.2,,0.0,,0.0
1979-03-03 15:04:45.920 ,3,0,0.,1.2,0.,1.2,0.,1.2,,0.0,,0.0
1979-03-03 15:04:47.120 ,3,0,0.,1.2,0.,1.2,0.,1.2,,0.0,,0.0
1979-03-03 15:04:48.320 ,3,0,0.,1.2,0.,1.2,0.,1.2,,0.0,,0.0
1979-03-03 15:04:49.520 ,3,0,0.,1.2,0.,1.2,0.,1.2,,0.0,,0.0
1979-03-03 15:04:50.720 ,3,0,0.,1.2,0.,1.2,0.,1.2,,0.0,,0.0
1979-03-03 15:04:51.920 ,3,0,0.,1.2,0.,1.2,0.,1.2,,0.0,,0.0
1979-03-03 15:04:53.120 ,3,0,0.,1.2,0.,1.2,0.,1.2,,0.0,,0.0
1979-03-03 15:04:54.320 ,3,0,0.,1.2,0.,1.2,0.,1.2,,0.0,,0.0
1979-03-03 15:04:55.520 ,3,0,0.,1.2,0.,1.2,0.,1.2,,0.0,,0.0
1979-03-03 15:04:56.720 ,3,0,0.,1.2,0.,1.2,0.,1.2,,0.0,,0.0
1979-03-03 15:04:57.920 ,3,0,0.,1.2,0.,1.2,0.,1.2,,0.0,,0.0
1979-03-03 15:04:59.120 ,3,0,0.,1.2,0.,1.2,0.,1.2,,0.0,,0.0
1979-03-03 15:05:00.320 ,2,0,0.,1.2,0.,1.2,0.,1.2,,0.0,,0.0
1979-03-03 15:05:01.520 ,2,0,0.,1.2,0.,1.2,0.,1.2,,0.0,,0.0
1979-03-03 15:05:02.720 ,2,0,0.,1.2,0.,1.2,0.,1.2,,0.0,,0.0
1979-03-03 15:05:03.920 ,2,0,0.,1.2,0.,1.2,0.,1.2,,0.0,,0.0
1979-03-03 15:05:05.120 ,2,0,0.,1.2,0.,1.2,0.,1.2,,0.0,,0.0
1979-03-03 15:05:06.320 ,2,0,0.,1.2,0.,1.2,0.,1.2,,0.0,,0.0
1979-03-03 15:05:07.520 ,2,0,0.,1.2,0.,1.2,0.,1.2,,0.0,,0.0
1979-03-03 15:05:08.720 ,2,0,0.,1.2,0.,1.2,0.,1.2,,0.0,,0.0
1979-03-03 15:05:09.920 ,2,0,0.,1.2,0.,1.2,0.,1.2,,0.0,,0.0
1979-03-03 15:05:11.120 ,2,0,0.,1.2,0.,1.2,0.,1.2,,0.0,,0.0
1979-03-03 15:05:12.320 ,2,0,0.,1.2,0.,1.2,0.,1.2,,0.0,,0.0
1979-03-03 15:05:13.520 ,2,0,0.,1.2,0.,1.2,0.,1.2,,0.0,,0.0
1979-03-03 15:05:14.720 ,2,0,0.,1.2,0.,1.2,0.,1.2,,0.0,,0.0
1979-03-03 15:05:15.920 ,2,0,0.,1.2,0.,1.2,0.,1.2,,0.0,,0.0
1979-03-03 15:05:17.120 ,2,0,0.,1.2,0.,1.2,0.,1.2,,0.0,,0.0
1979-03-03 15:05:18.320 ,2,0,0.,1.2,0.,1.2,0.,1.2,,0.0,,0.0
1979-03-03 15:05:19.520 ,2,0,0.,1.2,0.,1.2,0.,1.2,,0.0,,0.0
1979-03-03 15:05:20.720 ,2,0,0.,1.2,0.,1.2,0.,1.2,,0.0,,0.0
1979-03-03 15:05:21.920 ,2,0,0.,1.2,0.,1.2,0.,1.2,,0.0,,0.0
1979-03-03 15:05:23.120 ,2,0,0.,1.2,0.,1.2,0.,1.2,,0.0,,0.0
1979-03-03 15:05:24.320 ,1,0,0.,1.2,0.,1.2,0.,1.2,,0.0,,0.0
1979-03-03 15:05:25.520 ,1,0,0.,1.2,0.,1.2,0.,1.2,,0.0,,0.0
1979-03-03 15:05:26.720 ,1,0,0.,1.2,0.,1.2,0.,1.2,,0.0,,0.0
1979-03-03 15:05:27.920 ,1,0,0.,1.2,0.,1.2,0.,1.2,,0.0,,0.0
1979-03-03 15:05:29.120 ,1,0,0.,1.2,0.,1.2,0.,1.2,,0.0,,0.0
1979-03-03 15:05:30.320 ,1,0,0.,1.2,0.,1.2,0.,1.2,,0.0,,0.0
1979-03-03 15:05:31.520 ,1,0,0.,1.2,0.,1.2,0.,1.2,,0.0,,0.0
1979-03-03 15:05:32.720 ,1,0,0.,1.2,0.,1.2,0.,1.2,,0.0,,0.0
1979-03-03 15:05:33.920 ,1,0,0.,1.2,0.,1.2,0.,1.2,,0.0,,0.0
1979-03-03 15:05:35.120 ,1,0,0.,1.2,0.,1.2,0.,1.2,,0.0,,0.0
1979-03-03 15:05:36.320 ,1,0,0.,1.2,0.,1.2,0.,1.2,,0.0,,0.0
1979-03-03 15:05:37.520 ,1,0,0.,1.2,0.,1.2,0.,1.2,,0.0,,0.0
1979-03-03 15:05:38.720 ,1,0,0.,1.2,0.,1.2,0.,1.2,,0.0,,0.0
1979-03-03 15:05:39.920 ,1,0,0.,1.2,0.,1.2,0.,1.2,,0.0,,0.0
1979-03-03 15:05:41.120 ,1,0,0.,1.2,0.,1.2,0.,1.2,,0.0,,0.0
1979-03-03 15:05:42.320 ,1,0,0.,1.2,0.,1.2,0.,1.2,,0.0,,0.0
1979-03-03 15:05:43.520 ,1,0,0.,1.2,0.,1.2,0.,1.2,,0.0,,0.0
1979-03-03 15:05:44.720 ,1,0,0.,1.2,0.,1.2,0.,1.2,,0.0,,0.0
1979-03-03 15:05:45.920 ,1,0,0.,1.2,0.,1.2,0.,1.2,,0.0,,0.0
1979-03-03 15:05:47.120 ,1,0,0.,1.2,0.,1.2,0.,1.2,,0.0,,0.0
1979-03-03 15:05:48.320 ,0,0,0.,1.2,0.,1.2,0.,1.2,,0.0,,0.0
1979-03-03 15:05:49.520 ,0,0,0.,1.2,0.,1.2,0.,1.2,,0.0,,0.0
1979-03-03 15:05:50.720 ,0,0,0.,1.2,0.,1.2,0.,1.2,,0.0,,0.0
1979-03-03 15:05:51.920 ,0,0,0.,1.2,0.,1.2,0.,1.2,,0.0,,0.0
1979-03-03 15:05:53.120 ,0,0,0.,1.2,0.,1.2,0.,1.2,,0.0,,0.0
1979-03-03 15:05:54.320 ,0,0,0.,1.2,0.,1.2,0.,1.2,,0.0,,0.0
1979-03-03 15:05:55.520 ,0,0,0.,1.2,0.,1.2,0.,1.2,,0.0,,0.0
1979-03-03 15:05:56.720 ,0,0,0.,1.2,0.,1.2,0.,1.2,,0.0,,0.0
1979-03-03 15:05:57.920 ,0,0,0.,1.2,0.,1.2,0.,1.2,,0.0,,0.0
1979-03-03 15:05:59.120 ,0,0,0.,1.2,0.,1.2,0.,1.2,,0.0,,0.0
1979-03-03 15:06:00.320 ,0,0,0.,1.2,0.,1.2,0.,1.2,,0.0,,0.0
1979-03-03 15:06:01.520 ,0,0,0.,1.2,0.,1.2,0.,1.2,,0.0,,0.0
1979-03-03 15:06:02.720 ,0,0,0.,1.2,0.,1.2,0.,1.2,,0.0,,0.0
1979-03-03 15:06:03.920 ,0,0,0.,1.2,0.,1.2,0.,1.2,,0.0,,0.0
1979-03-03 15:06:05.120 ,0,0,0.,1.2,0.,1.2,0.,1.2,,0.0,,0.0
1979-03-03 15:06:06.320 ,0,0,0.,1.2,0.,1.2,0.,1.2,,0.0,,0.0
1979-03-03 15:06:07.520 ,0,0,0.,1.2,0.,1.2,0.,1.2,,0.0,,0.0
1979-03-03 15:06:08.720 ,0,0,0.,1.2,0.,1.2,0.,1.2,,0.0,,0.0
1979-03-03 15:06:09.920 ,0,0,0.,1.2,0.,1.2,0.,1.2,,0.0,,0.0
1979-03-03 15:06:11.120 ,0,0,0.,1.2,0.,1.2,0.,1.2,,0.0,,0.0
1979-03-03 15:06:12.320 ,0,0,0.,1.2,0.,1.2,0.,1.2,,0.0,,0.0
1979-03-03 15:06:13.520 ,0,0,0.,1.2,0.,1.2,0.,1.2,,0.0,,0.0
1979-03-03 15:06:14.720 ,0,0,0.,1.2,0.,1.2,0.,1.2,,0.0,,0.0
1979-03-03 15:06:15.920 ,0,0,0.,1.2,0.,1.2,0.,1.2,,0.0,,0.0
1979-03-03 15:06:17.120 ,0,0,0.,1.2,0.,1.2,0.,1.2,,0.0,,0.0
1979-03-03 15:06:18.320 ,0,0,0.,1.2,0.,1.2,0.,1.2,,0.0,,0.0
1979-03-03 15:06:19.520 ,0,0,0.,1.2,0.,1.2,0.,1.2,,0.0,,0.0
1979-03-03 15:06:20.720 ,0,0,0.,1.2,0.,1.2,0.,1.2,,0.0,,0.0
1979-03-03 15:06:21.920 ,0,0,0.,1.2,0.,1.2,0.,1.2,,0.0,,0.0
1979-03-03 15:06:23.120 ,0,0,0.,1.2,0.,1.2,0.,1.2,,0.0,,0.0
1979-03-03 15:06:24.320 ,0,0,0.,1.2,0.,1.2,0.,1.2,,0.0,,0.0
1979-03-03 15:06:25.520 ,0,0,0.,1.2,0.,1.2,0.,1.2,,0.0,,0.0
1979-03-03 15:06:26.720 ,0,0,0.,1.2,0.,1.2,0.,1.2,,0.0,,0.0
1979-03-03 15:06:27.920 ,0,0,0.,1.2,0.,1.2,0.,1.2,,0.0,,0.0
1979-03-03 15:06:29.120 ,0,0,0.,1.2,0.,1.2,0.,1.2,,0.0,,0.0
1979-03-03 15:06:30.320 ,0,0,0.,1.2,0.,1.2,0.,1.2,,0.0,,0.0
1979-03-03 15:06:31.520 ,0,0,0.,1.2,0.,1.2,0.,1.2,,0.0,,0.0
1979-03-03 15:06:32.720 ,0,0,0.,1.2,0.,1.2,0.,1.2,,0.0,,0.0
1979-03-03 15:06:33.920 ,0,0,0.,1.2,0.,1.2,0.,1.2,,0.0,,0.0
1979-03-03 15:06:35.120 ,0,0,0.,1.2,0.,1.2,0.,1.2,,0.0,,0.0
1979-03-03 15:06:36.320 ,1,0,0.,1.2,0.,1.2,0.,1.2,,0.0,,0.0
1979-03-03 15:06:37.520 ,1,0,0.,1.2,0.,1.2,0.,1.2,,0.0,,0.0
1979-03-03 15:06:38.720 ,1,0,0.,1.2,0.,1.2,0.,1.2,,0.0,,0.0
1979-03-03 15:06:39.920 ,1,0,0.,1.2,0.,1.2,0.,1.2,,0.0,,0.0
1979-03-03 15:06:41.120 ,1,0,0.,1.2,0.,1.2,0.,1.2,,0.0,,0.0
1979-03-03 15:06:42.320 ,1,0,0.,1.2,0.,1.2,0.,1.2,,0.0,,0.0
1979-03-03 15:06:43.520 ,1,0,0.,1.2,0.,1.2,0.,1.2,,0.0,,0.0
1979-03-03 15:06:44.720 ,1,0,0.,1.2,0.,1.2,0.,1.2,,0.0,,0.0
1979-03-03 15:06:45.920 ,1,0,0.,1.2,0.,1.2,0.,1.2,,0.0,,0.0
1979-03-03 15:06:47.120 ,1,0,0.,1.2,0.,1.2,0.,1.2,,0.0,,0.0
1979-03-03 15:06:48.320 ,1,0,0.,1.2,0.,1.2,0.,1.2,,0.0,,0.0
1979-03-03 15:06:49.520 ,1,0,0.,1.2,0.,1.2,0.,1.2,,0.0,,0.0
1979-03-03 15:06:50.720 ,1,0,0.,1.2,0.,1.2,0.,1.2,,0.0,,0.0
1979-03-03 15:06:51.920 ,1,0,0.,1.2,0.,1.2,0.,1.2,,0.0,,0.0
1979-03-03 15:06:53.120 ,1,0,0.,1.2,0.,1.2,0.,1.2,,0.0,,0.0
1979-03-03 15:06:54.320 ,1,0,0.,1.2,0.,1.2,0.,1.2,,0.0,,0.0
1979-03-03 15:06:55.520 ,1,0,0.,1.2,0.,1.2,0.,1.2,,0.0,,0.0
1979-03-03 15:06:56.720 ,1,0,0.,1.2,0.,1.2,0.,1.2,,0.0,,0.0
1979-03-03 15:06:57.920 ,1,0,0.,1.2,0.,1.2,0.,1.2,,0.0,,0.0
1979-03-03 15:06:59.120 ,1,0,0.,1.2,0.,1.2,0.,1.2,,0.0,,0.0
1979-03-03 15:07:00.320 ,2,0,0.,1.2,0.,1.2,0.,1.2,,0.0,,0.0
1979-03-03 15:07:01.520 ,2,0,0.,1.2,0.,1.2,0.,1.2,,0.0,,0.0
1979-03-03 15:07:02.720 ,2,0,0.,1.2,0.,1.2,0.,1.2,,0.0,,0.0
1979-03-03 15:07:03.920 ,2,0,0.,1.2,0.,1.2,0.,1.2,,0.0,,0.0
1979-03-03 15:07:05.120 ,2,0,0.,1.2,0.,1.2,0.,1.2,,0.0,,0.0
1979-03-03 15:07:06.320 ,2,0,0.,1.2,0.,1.2,0.,1.2,,0.0,,0.0
1979-03-03 15:07:07.520 ,2,0,0.,1.2,0.,1.2,0.,1.2,,0.0,,0.0
1979-03-03 15:07:08.720 ,2,0,0.,1.2,0.,1.2,0.,1.2,,0.0,,0.0
1979-03-03 15:07:09.920 ,2,0,0.,1.2,0.,1.2,0.,1.2,,0.0,,0.0
1979-03-03 15:07:11.120 ,2,0,0.,1.2,0.,1.2,0.,1.2,,0.0,,0.0
1979-03-03 15:07:12.320 ,2,0,0.,1.2,0.,1.2,0.,1.2,,0.0,,0.0
1979-03-03 15:07:13.520 ,2,0,0.,1.2,0.,1.2,0.,1.2,,0.0,,0.0
1979-03-03 15:07:14.720 ,2,0,0.,1.2,0.,1.2,0.,1.2,,0.0,,0.0
1979-03-03 15:07:15.920 ,2,0,0.,1.2,0.,1.2,0.,1.2,,0.0,,0.0
1979-03-03 15:07:17.120 ,2,0,0.,1.2,0.,1.2,0.,1.2,,0.0,,0.0
1979-03-03 15:07:18.320 ,2,0,0.,1.2,0.,1.2,0.,1.2,,0.0,,0.0
1979-03-03 15:07:19.520 ,2,0,0.,1.2,0.,1.2,0.,1.2,,0.0,,0.0
1979-03-03 15:07:20.720 ,2,0,0.,1.2,0.,1.2,0.,1.2,,0.0,,0.0
1979-03-03 15:07:21.920 ,2,0,0.,1.2,0.,1.2,0.,1.2,,0.0,,0.0
1979-03-03 15:07:23.120 ,2,0,0.,1.2,0.,1.2,0.,1.2,,0.0,,0.0
1979-03-03 15:07:24.320 ,3,0,0.,1.2,0.,1.2,0.,1.2,,0.0,,0.0
1979-03-03 15:07:25.520 ,3,0,0.,1.2,0.,1.2,0.,1.2,,0.0,,0.0
1979-03-03 15:07:26.720 ,3,0,0.,1.2,0.,1.2,0.,1.2,,0.0,,0.0
1979-03-03 15:07:27.920 ,3,0,0.,1.2,0.,1.2,0.,1.2,,0.0,,0.0
1979-03-03 15:07:29.120 ,3,0,0.,1.2,0.,1.2,0.,1.2,,0.0,,0.0
1979-03-03 15:07:30.320 ,3,0,0.,1.2,0.,1.2,0.,1.2,,0.0,,0.0
1979-03-03 15:07:31.520 ,3,0,0.,1.2,0.,1.2,0.,1.2,,0.0,,0.0
1979-03-03 15:07:32.720 ,3,0,0.,1.2,0.,1.2,0.,1.2,,0.0,,0.0
1979-03-03 15:07:33.920 ,3,0,0.,1.2,0.,1.2,0.,1.2,,0.0,,0.0
1979-03-03 15:07:35.120 ,3,0,0.,1.2,0.,1.2,0.,1.2,,0.0,,0.0
1979-03-03 15:07:36.320 ,3,0,0.,1.2,0.,1.2,0.,1.2,,0.0,,0.0
1979-03-03 15:07:37.520 ,3,0,0.,1.2,0.,1.2,0.,1.2,,0.0,,0.0
1979-03-03 15:07:38.720 ,3,0,0.,1.2,0.,1.2,0.,1.2,,0.0,,0.0
1979-03-03 15:07:39.920 ,3,0,0.,1.2,0.,1.2,0.,1.2,,0.0,,0.0
1979-03-03 15:07:41.120 ,3,0,0.,1.2,0.,1.2,0.,1.2,,0.0,,0.0
1979-03-03 15:07:42.320 ,3,0,0.,1.2,0.,1.2,0.,1.2,,0.0,,0.0
1979-03-03 15:07:43.520 ,3,0,0.,1.2,0.,1.2,0.,1.2,,0.0,,0.0
1979-03-03 15:07:44.720 ,3,0,0.,1.2,0.,1.2,0.,1.2,,0.0,,0.0
1979-03-03 15:07:45.920 ,3,0,0.,1.2,0.,1.2,0.,1.2,,0.0,,0.0
1979-03-03 15:07:47.120 ,3,0,0.,1.2,0.,1.2,0.,1.2,,0.0,,0.0
1979-03-03 15:07:48.320 ,4,0,0.,1.2,0.,1.2,0.,1.2,,0.0,,0.0
1979-03-03 15:07:49.520 ,4,0,0.,1.2,0.,1.2,0.,1.2,,0.0,,0.0
1979-03-03 15:07:50.720 ,4,0,0.,1.2,0.,1.2,0.,1.2,,0.0,,0.0
1979-03-03 15:07:51.920 ,4,0,0.,1.2,0.,1.2,0.,1.2,,0.0,,0.0
1979-03-03 15:07:53.120 ,4,0,0.,1.2,0.,1.2,0.,1.2,,0.0,,0.0
1979-03-03 15:07:54.320 ,4,0,0.,1.2,0.,1.2,0.,1.2,,0.0,,0.0
1979-03-03 15:07:55.520 ,4,0,0.,1.2,0.,1.2,0.,1.2,,0.0,,0.0
1979-03-03 15:07:56.720 ,4,0,0.,1.2,0.,1.2,0.,1.2,,0.0,,0.0
1979-03-03 15:07:57.920 ,4,0,0.,1.2,0.,1.2,0.,1.2,,0.0,,0.0
1979-03-03 15:07:59.120 ,4,0,0.,1.2,0.,1.2,0.,1.2,,0.0,,0.0
1979-03-03 15:08:00.320 ,4,0,0.,1.2,0.,1.2,0.,1.2,,0.0,,0.0
1979-03-03 15:08:01.520 ,4,0,0.,1.2,0.,1.2,0.,1.2,,0.0,,0.0